Vorticity
nan nan nan nan nan nan nan nan nan nan nan nan nan nan nan nan nan nan nan nan nan nan nan nan nan nan nan nan nan nan nan nan nan nan nan nan nan nan nan nan nan nan nan
nan 12 9 6 6 5 4 4 4 5 4 5 4 4 4 4 4 4 5 5 5 5 6 5 5 4 4 6 8 7 6 8 8 8 9 6 6 6 3 2 7 9 nan
nan 10 8 7 7 5 4 4 5 5 4 5 4 4 4 4 4 4 4 5 5 5 5 5 4 5 6 6 5 6 6 6 7 7 3 4 10 9 4 5 8 9 nan
nan 9 10 7 5 6 4 3 6 5 4 4 5 5 5 5 5 4 4 4 5 5 5 5 6 6 6 6 6 6 6 7 7 5 5 9 11 7 5 7 6 7 nan
nan 7 12 11 6 6 5 3 4 5 6 4 5 6 6 5 4 4 5 5 5 5 6 6 7 6 7 6 6 6 6 6 5 3 6 7 9 10 7 5 7 6 nan
nan 8 12 10 6 5 6 6 5 4 6 4 5 6 6 5 6 5 5 5 6 7 8 7 7 6 5 6 7 7 7 4 2 4 7 7 9 12 6 6 7 7 nan
nan 6 11 10 5 6 6 6 5 9 6 6 6 5 5 6 7 6 6 7 7 7 7 8 7 7 6 6 7 8 7 3 3 5 6 6 12 13 7 8 7 7 nan
nan 8 11 12 7 5 7 6 7 10 6 6 6 6 6 6 6 8 7 7 8 7 7 8 7 7 7 9 11 11 6 3 4 5 6 9 14 10 8 7 7 9 nan
nan 6 7 10 10 8 9 9 10 7 6 6 6 6 7 7 8 7 5 5 6 7 7 8 7 7 7 8 12 11 6 5 5 6 6 11 15 9 7 8 9 9 nan
nan 8 6 7 7 7 11 12 9 6 7 6 7 7 7 8 8 6 6 5 5 6 7 8 9 6 7 7 7 8 7 5 6 6 7 14 15 8 7 7 6 7 nan
nan 11 16 11 5 5 7 8 9 9 8 8 6 6 6 8 9 9 8 8 5 6 7 8 9 9 6 4 5 6 4 5 7 7 9 14 13 8 7 5 6 7 nan
nan 10 9 12 15 8 7 7 6 7 6 8 8 8 7 8 8 9 9 11 8 6 8 12 13 5 2 3 5 5 6 8 9 7 11 19 18 7 10 7 6 5 nan
nan 7 4 9 14 15 9 6 7 8 8 7 7 7 7 6 7 7 7 8 10 9 10 13 10 4 6 7 7 7 9 8 8 9 15 11 15 21 13 4 6 5 nan
nan 7 6 8 11 16 15 9 7 7 7 7 8 7 6 6 7 6 7 7 7 10 10 10 6 8 8 9 8 8 8 8 8 12 17 11 2 15 12 7 5 6 nan
nan 8 9 9 10 9 16 14 8 6 8 8 8 7 6 7 7 6 7 9 9 9 9 8 8 7 7 7 8 8 8 10 9 13 14 13 10 10 5 8 6 5 nan
nan 7 8 10 10 10 10 14 13 9 8 7 8 9 7 7 8 8 8 8 10 9 9 9 9 7 8 7 8 7 7 8 7 14 18 10 11 11 8 8 7 7 nan
nan 7 8 10 8 9 11 13 14 12 8 8 8 9 7 8 8 8 8 8 10 10 8 8 9 8 8 6 7 7 8 7 8 11 14 8 4 8 11 9 8 6 nan
nan 8 10 9 8 10 13 13 14 12 8 7 8 9 9 8 8 7 8 9 9 10 9 9 7 8 8 8 6 7 7 7 7 8 9 11 10 4 6 9 8 8 nan
nan 8 9 9 8 11 15 14 15 14 10 8 8 8 9 8 8 7 8 9 9 10 10 9 10 8 6 7 7 9 7 7 7 7 9 8 10 12 10 6 3 6 nan
nan 9 10 8 7 14 16 16 16 12 9 9 9 9 9 8 8 6 8 9 10 9 9 10 9 10 8 6 6 7 8 10 9 7 8 7 8 9 9 5 6 6 nan
nan 7 8 8 11 14 11 13 13 5 7 11 11 10 8 8 8 7 8 8 11 11 9 8 9 6 5 3 2 2 4 5 8 10 7 7 8 7 8 8 9 9 nan
nan 7 8 9 9 13 9 11 10 9 12 10 11 11 8 9 8 8 8 9 10 9 10 8 5 3 5 5 6 2 2 2 3 6 9 9 8 8 6 8 9 10 nan
nan 8 8 8 9 10 13 12 10 15 13 10 6 11 10 8 8 9 8 10 10 8 9 8 8 4 0 7 8 7 6 10 5 3 6 9 8 8 7 7 7 8 nan
nan 8 8 9 11 6 11 10 13 14 9 8 5 9 16 10 8 8 10 9 8 8 9 7 7 5 7 4 -2 8 18 12 6 7 5 7 7 7 7 7 6 7 nan
nan 9 9 8 8 8 11 13 8 10 11 9 8 15 18 11 8 7 9 9 6 9 10 9 6 6 7 4 7 11 7 3 10 12 7 6 7 6 8 8 8 7 nan
nan nan nan nan nan nan nan nan nan nan nan nan nan nan nan nan nan nan nan nan nan nan nan nan nan nan nan nan nan nan nan nan nan nan nan nan nan nan nan nan nan nan nan
CAPE
110 311 1585 1327 1229 1116 1072 1198 1142 876 1162 957 913 666 591 582 561 610 728 856 871 1012 1257 1404 1148 1128 1047 1011 1228 1232 1415 1406 1555 1669 1481 1337 1430 1060 1070 1442 1480 1182 1391
82 521 1457 1543 1194 1034 1465 1511 1186 1715 1481 1290 944 761 613 636 623 681 740 849 885 1053 1253 1345 1171 1117 1117 1118 1347 1449 1454 1516 1610 1400 1293 1099 1272 1223 1254 1615 1675 1450 1266
453 780 980 1516 1120 831 1107 1478 1583 1778 1534 1461 944 868 699 732 748 739 818 852 916 963 1131 1100 1094 1137 1243 1503 1626 1662 1810 1579 1400 1291 1031 966 981 1395 1368 1560 1796 1509 1345
787 721 553 863 920 1090 885 1367 1580 1289 1266 1411 1342 914 920 940 892 868 898 801 820 924 1204 1226 1466 1424 1694 1850 1611 1665 1573 1671 1350 1086 812 755 945 1494 1621 1540 1527 1489 1371
699 728 666 855 895 891 960 1258 1515 1629 1720 1617 1609 1493 1054 899 932 851 879 1012 1282 1272 1356 1389 1409 1391 1742 1839 1800 1716 1639 1628 1158 762 664 668 1010 1336 1650 1531 1521 1366 1296
479 579 861 768 977 1064 1555 649 1394 1565 1710 1635 1745 1595 1217 926 836 880 1131 1311 1218 1303 1382 1333 1487 1450 1727 1738 1724 1643 1658 1360 667 496 568 876 807 1505 1640 1460 1437 1299 1208
367 325 716 910 943 1480 1245 1068 1784 2096 2020 1639 1461 1189 1012 694 685 897 1130 1181 1256 1309 1395 1410 1433 1475 1536 1536 1616 1692 1614 738 436 403 507 565 718 1611 1445 1464 1340 1346 1283
319 324 498 1045 861 952 1170 1383 1855 2158 2028 1808 1541 1146 794 845 811 1002 843 788 925 905 1084 1253 1259 1317 1325 1434 1424 1666 1014 447 424 370 342 346 1168 1523 1384 1316 1365 1403 1114
351 384 385 432 434 937 1039 1228 1782 1754 1511 1515 1320 1136 900 903 863 932 653 418 353 524 1000 1263 1288 1217 1113 962 1155 971 498 273 250 286 207 258 1031 1436 1351 1224 1104 947 820
324 303 299 276 357 636 629 1183 1220 1121 1046 1016 839 685 416 413 455 889 493 386 373 417 692 954 1145 1108 718 667 297 171 120 112 183 120 100 273 1256 1458 1273 1102 956 1061 1105
0 1 106 158 220 307 237 507 826 829 798 708 484 292 156 0 63 166 244 200 278 273 365 831 1058 835 421 222 214 111 56 41 50 57 76 358 1146 1272 1127 958 1076 809 740
0 0 1 3 20 54 116 84 61 99 146 254 42 0 0 0 0 0 0 79 164 133 61 377 791 389 29 11 40 51 27 41 62 68 98 568 1114 1112 910 806 859 593 463
0 0 0 0 0 0 3 1 0 1 0 1 0 0 0 0 0 0 0 0 0 6 0 35 81 0 1 1 5 1 1 51 152 81 87 482 119 585 991 704 554 505 289
0 0 0 0 1 0 0 0 0 0 0 0 0 0 0 0 0 1 0 0 0 0 0 0 0 1 0 1 0 1 1 1 21 18 121 225 5 300 678 388 316 246 197
0 0 0 0 1 1 1 0 0 0 0 0 1 0 0 0 0 0 0 0 1 1 1 1 1 1 1 1 1 0 1 1 2 1 130 117 234 459 408 309 270 210 166
0 0 1 1 1 2 1 3 0 0 0 0 1 0 0 0 0 0 0 0 2 1 0 1 1 1 1 0 1 1 1 2 1 0 82 77 118 207 324 249 221 178 101
0 1 1 2 2 2 2 3 5 0 0 0 0 0 0 0 0 0 0 0 0 1 1 1 1 1 1 0 1 1 0 2 0 1 0 1 0 17 134 156 128 84 36
0 1 2 1 3 2 2 3 2 0 0 0 0 0 0 0 0 0 0 0 1 1 0 0 0 1 1 0 0 1 1 1 1 0 2 0 0 3 25 46 41 31 26
0 0 2 4 4 4 3 3 1 3 0 0 0 0 0 0 0 0 0 0 1 1 0 1 0 0 0 0 1 0 0 1 0 0 0 0 0 0 0 11 16 18 30
0 0 0 3 4 6 7 3 2 2 0 0 0 0 0 0 0 0 0 0 0 0 0 0 0 0 0 0 1 0 0 0 0 0 0 0 0 0 0 0 0 2 26
0 0 0 4 3 9 6 8 3 3 3 3 0 0 0 0 0 0 0 0 0 0 0 0 0 0 0 0 0 0 0 0 0 0 0 0 0 0 0 0 0 0 5
4 3 2 5 4 7 8 8 13 7 2 2 0 0 0 0 0 0 0 0 0 0 0 0 0 0 0 0 0 0 0 0 0 0 0 0 0 0 0 0 0 0 0
2 2 7 7 7 7 6 7 6 2 3 2 2 0 0 0 0 0 0 0 0 0 0 0 0 0 0 0 0 0 0 0 0 0 0 0 0 0 0 0 0 0 0
3 3 3 4 8 9 4 4 7 8 9 4 4 1 0 0 0 0 0 0 0 0 0 0 0 0 0 0 0 0 0 0 0 0 0 0 0 0 0 0 0 0 0
2 1 0 2 3 6 3 6 5 6 9 6 3 1 0 0 0 0 0 0 0 0 0 0 0 0 0 0 0 0 0 0 0 0 0 0 0 0 0 0 0 0 0
0 0 1 2 2 3 3 1 5 2 3 6 1 3 3 0 0 0 0 0 0 0 0 0 0 0 0 0 0 0 0 0 0 0 0 0 0 0 0 0 0 0 0